SCOUT B DEB, 2498

Orbit data source: Space-Track

SCOUT B DEB, 2498 is space debris in LEO originally from a launch on Fri, 10 Jun 1966 UTC launched from the Wallops Island (WLPIS). Debris objects in space refer to the collection of defunct objects orbiting the Earth. Examples of debris include non-operational satellites, rocket bodies, and fragments generated from explosions, collisions, or faulty payload assembly.

Loading next visibility...
Identifier
2498, 1966-052C
Orbit
LEO
Country
Flag of USUS
Related business
Manufacturer
Unknown
Mission
Spacecraft
Bus & Motor
Unknown
Mass
Unknown
Launch date (UTC)
1966-06-10 (60 years ago)
Launch vehicle
Unknown
Launch site
Wallops Island (WLPIS)
Object type
Payload
Rocket body
Debris
Shape & HBR
Unknown shape, 0.1 m
Radar Cross Section
Small (<0.1 m²)

Expand to show TLE details & history
Last TLE update: 3 weeks ago

TLE from 3 weeks ago
0 SCOUT B DEB
1 02498U 66052C   26106.90420287  .00000203  00000-0  19212-3 0  9992
2 02498  40.6468 315.3028 2068732 249.2462  87.5291 10.56392037470382
Epoch: 2026-04-16T21:42Z
TLE epoch observation values (Epoch: 2026-04-16T21:42:03.127Z)
Latitude
-0.00002°
Longitude
144.74469°
Altitude
2,686.143 km
Speed
6.523 km/s
True Right ascension
21h 01m 12s
True Declination
0° 00' 00"
Sunlit
Object was in daylight at epoch
Visualization orbit readout
Latitude
Unknown
Longitude
Unknown
Altitude
Unknown
Speed
Unknown
Apparent Right ascension
Unknown
Apparent Declination
Unknown
Sunlit
N/A
Visualization observer readout
Local Sidereal Time
11:40:37
Azimuth
Unknown
Elevation
Unknown
Doppler factor
Unknown
Orbital elements
Apogee altitude
4,213.021 km
Perigee altitude
582.107 km
Semi-major axis
8,775.701 km
Eccentricity
0.20687
Inclination
40.6468°
RAAN
315.3028°
Arg. of periapsis
249.2462°
True anomaly
110.82132°
Mean anomaly
87.5291°
Eccentric anomaly
99.22864°
Mean motion
2.6401 °/min
Orbital period
136.36 mins
BSTAR
0.00019212
Loading maneuver chart data...
Computing Atmospheric mass density...
Loading historical data...
Loading historical data...
Loading historical data...
Loading historical data...
Loading historical data...
Loading historical data...
Loading historical data...
Other satellites on launch #52 in the year 1966 (1966-06-10 UTC)

Documentation

Showing up to 5 results
|